[Iaude] MPEC B163: 2024 BO3 [a=0.78,e=0.43,i=13.9,H=26.6]

mpec at marsden.cfa.harvard.edu mpec at marsden.cfa.harvard.edu
Tue Jan 30 22:09:41 EST 2024


M.P.E.C. 2024-B163                             Issued 2024 January 31, 03:07 UT

     The Minor Planet Electronic Circulars contain information on unusual
         minor planets, routine data on comets and natural satellites,
         and occasional editorial announcements.  They are published
    on behalf of Division F of the International Astronomical Union by the
          Minor Planet Center, Smithsonian Astrophysical Observatory,
                          Cambridge, MA 02138, U.S.A.
			  
             Prepared using the Tamkin Foundation Computer Network

                              MPC at CFA.HARVARD.EDU
            URL https://www.minorplanetcenter.net/    ISSN 1523-6714

                                    2024 BO3                                    


Observations:
     K24B03O*1C2024 01 30.28353008 14 50.118+18 12 43.60         20.26GVEB163G96
     K24B03O 1C2024 01 30.28926108 14 38.288+18 11 42.32               VEB163G96
     K24B03O 1C2024 01 30.29500508 14 26.128+18 10 39.94         19.80GVEB163G96
     K24B03O 1C2024 01 30.30073808 14 14.132+18 09 37.44         19.90GVEB163G96
     K24B03O 1C2024 01 30.38951008 11 07.998+17 53 15.14         20.32GVEB163G96
     K24B03O 1C2024 01 30.38971708 11 07.609+17 53 13.24         20.30GVEB163G96
     K24B03O 1C2024 01 30.38992308 11 07.138+17 53 11.08         20.24GVEB163G96
     K24B03O 1C2024 01 30.39013008 11 06.709+17 53 08.77         20.22GVEB163G96
     K24B03O KB2024 01 30.79082 07 57 25.10 +16 33 37.0                ZEB163106
     K24B03O KB2024 01 30.79506 07 57 15.82 +16 32 45.6                ZEB163106
     K24B03O KB2024 01 30.79961 07 57 05.79 +16 31 47.6                ZEB163106
     K24B03O KB2024 01 30.80428 07 56 55.60 +16 30 51.5                ZEB163106
     K24B03O KB2024 01 30.87733507 54 16.10 +16 15 41.8          19.8 GXEB163958
     K24B03O KB2024 01 30.88324407 54 02.92 +16 14 28.9          19.9 GXEB163958
     K24B03O KB2024 01 30.88912307 53 49.83 +16 13 14.0          19.6 GXEB163958
     K24B03O bC2024 01 30.90261807 53 16.68 +16 10 19.9          20.4 GVEB163L01
     K24B03O bC2024 01 30.90459907 53 12.20 +16 09 54.6          20.7 GVEB163L01
     K24B03O bC2024 01 30.90657807 53 07.78 +16 09 29.5          20.6 GVEB163L01
     K24B03O bC2024 01 30.90918507 53 01.92 +16 08 55.6          20.9 GVEB163L01
     K24B03O KB2024 01 30.94634407 51 40.74 +16 00 57.7          19.2 GXEB163I93
     K24B03O KB2024 01 30.95615207 51 18.52 +15 58 50.9          19.4 GXEB163I93

Observer details:
106 Crni Vrh.  Observer H. Mikuz.  0.60-m f/3.3 reflector + CMO.
958 Observatoire de Dax.  Observer P. Dupouy.  0.50-m f/4.5 Reflector + CMO.
G96 Mt. Lemmon Survey.  Observer D. Rankin.  Measurers T. Beuden, V. F.
    Carvajal, D. Fay, J. B. Fazekas, D. C. Fuls, A. R. Gibbs, A. D. Grauer, H.
    Groeller, J. K. Hogan, R. A. Kowalski, S. M. Larson, G. J. Leonard, D.
    Rankin, R. L. Seaman, F. C. Shelly, K. W. Wierzchos.  1.5-m reflector +
    10K CCD.
I93 St Pardon de Conques.  Observer F. Losse.  0.40-m f/3.7 reflector + CMO.
L01 Visnjan Observatory, Tican.  Observer K. Korlevic.  1.0-m f/2.9 reflector
    + CCD.

Orbital elements:
2024 BO3                                                 Earth MOID = 0.0225 AU
Epoch 2023 Sept. 13.0 TT = JDT 2460200.5                Veres                   
M  41.08464              (2000.0)            P               Q                  
n   1.43043936     Peri.  332.17667     +0.20400402     +0.96099020             
a   0.7801110      Node   308.97332     -0.84767578     +0.07796634             
e   0.4323285      Incl.   13.89998     -0.48972250     +0.26536596             
P   0.69           H   26.68          G   0.15           U   8                  
Residuals in seconds of arc
240130 G96  0.4+  0.1+    240130 G96  0.5-  0.2+    240130 958  0.5+  0.7+
240130 G96  2.0+  0.4+    240130 106  0.3+  0.5+    240130 L01  0.0   0.2-
240130 G96  0.5-  0.1-    240130 106  0.6+  1.0+    240130 L01  0.3-  0.1-
240130 G96  0.9-  0.6-    240130 106  0.1-  1.2-    240130 L01  0.2+  0.2+
240130 G96  0.7-  0.4-    240130 106  1.1+  0.1+    240130 L01  0.3+  0.3-
240130 G96  0.0   0.0     240130 958  0.7-  0.3-    240130 I93  0.2-  0.1-
240130 G96  0.5-  0.2+    240130 958  0.4-  1.3+    240130 I93  0.3-  0.4+

Ephemeris:
2024 BO3                 a,e,i = 0.78, 0.43, 14                  q = 0.4428
Date    TT    R. A. (2000) Decl.     Delta      r    Elong.  Phase     V
2024 01 01    11 28 27.1 +27 36 36   0.2381  1.1088   116.1    52.8    25.7
...
2024 01 16    11 10 16.2 +27 06 46   0.1296  1.0773   133.7    41.3    24.0
...
2024 01 24    10 21 30.4 +26 00 50   0.07499 1.0509   151.7    26.4    22.4
...
2024 01 30    08 24 06.2 +19 02 17   0.04184 1.0266   174.5     5.2    20.3
2024 01 31    07 49 43.0 +15 51 15   0.03831 1.0222   165.3    14.2    20.4
2024 02 01    07 10 59.9 +11 43 46   0.03587 1.0177   154.3    24.9    20.6
...
2024 02 07    03 39 47.8 -14 04 16   0.04782 0.9882    91.0    86.2    23.1
...
2024 02 15    01 58 47.2 -22 42 00   0.09480 0.9428    59.4   115.7    26.0
...
2024 03 01    00 58 53.5 -24 54 56   0.1964  0.8391    35.7   136.5    29.2

M. P. C. Staff               (C) Copyright 2024 MPC           M.P.E.C. 2024-B163





More information about the Iaude mailing list